Location: �quirre
(50.4736°N, 2.2351°E)
Time: 08:17:57
(UTC+00:00)

Timation 2 Rocket - Pass Details

Date: 07 August 2020
Orbit: 907 x 1075 km, 70.0° (Epoch: 26 September)

Event Time Altitude Azimuth Distance (km) Brightness Sun altitude
Exits shadow 01:14:32 40° 191° (SSW) 1,365 4.3 -21.0°
Maximum altitude 01:16:52 73° 117° (ESE) 976 3.9 -20.9°
Drops below altitude 10° 01:22:53 10° 34° (NE) 2,618 7.4 -20.6°
Sets 01:25:22 0° 33° (NNE) 3,554 8.4 -20.4°
